NILESAT 201

Last updated on Sept. 28, 2020, 5:45 a.m. UTC

1 36830U 10037A   20271.84423787 -.00000079  00000-0  00000-0 0  9993
2 36830   0.0455 158.3879 0004978  11.3793 134.2494  1.00272902 37425
UTC
Height (km)
Latitude
Longitude
Inclination
Orbital Period
UTC large
Height (km)
Speed (km/s)
/
Latitude / Longitude
Inclination (degrees)
Orbital Period (minutes)
Azimuth
Elevation
Range (km)
Doppler Factor
iOS Compass Heading
iOS Angle

Next 30 passes for location: Hong Kong

Rise time Rise Azimuth (degrees) Set time Set Azimuth (degrees) Duration Max altitude (degrees)

No matching passes for this satellites